Home   Weather   West Palm Beach   Past weeks

Flag for USA Past Weather in West Palm Beach, Florida, USA — Yesterday and Last 2 Weeks

Now
73 °F

Passing clouds.


Feels Like: 71 °F
Forecast: 74 / 88 °F
Wind: No wind

Location: Palm Beach International Airport

Current Time: Sep 28, 2016 at 6:16:16 AM

Latest Report: Sep 28, 2016 at 5:53 AM


Visibility: 10 mi

Pressure: 29.97 "Hg

Humidity: 90%

Dew Point: 70 °F

Location of West Palm BeachLocation

Past Weather in West Palm Beach — Graph

°F

West Palm Beach Temperature Yesterday

Maximum temperature yesterday: 86 °F (at 11:53 AM)
Minimum temperature yesterday: 73 °F (at 2:53 PM)
Average temperature yesterday: 78 °F

High & Low Weather Summary for the Past Weeks

 TemperatureHumidityPressure
High92 °F (Sep 17, 1:53 PM)94% (Sep 19, 5:53 AM)30.08 "Hg (Sep 19, 5:53 AM)
Low72 °F (Sep 28, 3:53 AM)52% (Sep 17, 1:53 PM)29.91 "Hg (Sep 27, 5:53 AM)
Average82 °F77%29.99 "Hg
* Reported Sep 13 4:59 AM — Sep 28 4:53 AM, West Palm Beach, Weather by CustomWeather, © 2016

Note: Actual official high and low records may vary slightly from our data, if they occured in-between our weather recording intervals... More about our weather records

Advertising

West Palm Beach Weather History for the Previous 24 Hours

Scroll right to see more
 ConditionsComfort  
Time TempWeatherWind HumidityBarometerVisibility
4:53 AM
Wed, Sep 28
72 °FPassing clouds.No wind93%29.97 "Hg10 mi
3:53 AM72 °FPassing clouds.5 mph91%29.97 "Hg10 mi
2:53 AM73 °FPassing clouds.No wind88%29.98 "Hg10 mi
1:53 AM73 °FPassing clouds.3 mph90%29.98 "Hg10 mi
12:53 AM74 °FPassing clouds.6 mph91%29.99 "Hg10 mi
11:53 PM
Tue, Sep 27
74 °FPassing clouds.3 mph91%30.00 "Hg10 mi
10:53 PM74 °FPassing clouds.No wind91%30.00 "Hg10 mi
9:53 PM74 °FPassing clouds.3 mph91%29.98 "Hg10 mi
8:53 PM75 °FPassing clouds.3 mph88%29.96 "Hg10 mi
7:53 PM75 °FPassing clouds.5 mph88%29.93 "Hg10 mi
6:53 PM76 °FBroken clouds.7 mph85%29.92 "Hg10 mi
5:53 PM78 °FBroken clouds.10 mph84%29.94 "Hg10 mi
4:53 PM77 °FBroken clouds.5 mph82%29.95 "Hg10 mi
3:53 PM74 °FThunderstorms. Partly sunny.3 mph88%29.94 "Hg8 mi
2:53 PM73 °FThunderstorms. Partly sunny.10 mph84%29.95 "Hg7 mi
1:53 PM80 °FThunderstorms. Partly sunny.6 mph79%29.93 "Hg7 mi
12:58 PM80 °FHeavy rain. Partly sunny.14 mph74%29.96 "Hg2 mi
11:53 AM86 °FBroken clouds.3 mph63%29.97 "Hg10 mi
10:53 AM84 °FPartly sunny.No wind70%29.98 "Hg10 mi
9:53 AM82 °FPartly sunny.No wind74%29.97 "Hg10 mi
8:53 AM79 °FPartly sunny.5 mph84%29.95 "Hg10 mi
7:53 AM79 °FPartly sunny.5 mph84%29.94 "Hg10 mi
6:53 AM77 °FPassing clouds.3 mph90%29.92 "Hg10 mi
Weather by CustomWeather, © 2016

See weather overviewHow to use our weather pages